GFSNW_prec_snow_207.txt.gz
Snowfall_Accumulation
0.0 0.0 0.0 0.0 0.0 0.0 0.0 0.0 24.4 0.0 0.0 17.2 34.4 23.9 7.1 0.0 0.0 0.0 2.5 4.7 8.8 10.8 8.9 12.3 16.4 10.5 1.1 0.0 1.3 4.1 3.1 11.7 7.5 2.1 0.0 0.0 0.0 4.6 5.8 19.0 19.2 20.7 25.5 18.9
0.0 0.0 0.0 0.0 0.0 0.0 0.0 12.0 7.8 0.0 0.0 29.3 16.9 5.3 3.1 2.4 3.5 1.9 4.7 7.1 9.8 11.0 11.5 14.2 9.7 6.6 0.0 0.0 0.0 5.3 2.4 13.5 11.3 6.7 0.0 0.0 3.3 1.7 7.5 18.0 22.9 30.6 31.6 26.6
0.0 0.0 0.0 0.0 0.0 0.0 0.0 7.2 32.1 5.8 5.3 2.9 5.4 6.5 7.0 7.2 0.0 2.4 0.1 8.0 9.2 11.0 6.6 6.6 8.8 6.7 0.0 0.0 0.0 0.0 0.0 10.6 9.4 9.0 8.9 7.1 10.5 6.8 4.2 15.2 32.1 19.4 17.7 13.8
0.0 0.0 0.0 0.0 0.0 0.0 0.0 19.1 30.4 0.0 21.8 16.3 7.6 7.1 9.8 6.5 5.4 0.5 0.4 7.9 6.0 8.0 11.3 6.3 4.3 4.0 2.7 0.0 0.0 0.0 1.4 16.1 8.5 6.4 7.3 3.8 3.9 9.0 7.8 8.0 9.2 14.9 14.0 6.0
0.0 0.0 0.0 0.0 0.0 0.0 0.0 58.3 13.4 3.3 4.5 0.4 6.8 14.9 15.5 7.4 2.5 8.7 4.7 4.9 2.4 3.9 8.0 7.0 5.9 5.0 2.0 4.8 0.0 0.5 0.6 8.7 10.1 8.3 6.0 3.1 7.4 9.4 5.9 4.7 6.3 7.1 3.8 4.4
0.0 0.0 0.0 0.0 0.0 0.0 0.0 3.1 0.0 9.1 4.8 3.7 9.1 7.8 4.8 5.2 6.1 0.6 1.8 4.6 7.2 6.5 4.2 1.1 1.1 1.9 2.2 4.2 5.9 5.2 5.8 8.6 7.1 8.4 2.0 3.0 9.7 8.4 4.9 2.9 1.4 1.7 1.5 2.5
0.0 0.0 0.0 0.0 0.0 0.0 0.0 0.0 1.3 20.3 17.8 8.6 5.2 2.0 2.9 5.2 4.3 7.7 2.8 1.3 4.3 0.0 0.0 0.0 0.0 0.9 0.5 0.4 1.8 2.4 7.6 7.1 9.4 7.8 5.7 15.6 6.0 2.4 0.9 0.2 0.4 0.5 0.1 0.8
0.0 0.0 0.0 0.0 0.0 0.0 0.0 0.0 0.0 14.7 16.3 4.2 4.8 4.5 4.7 1.0 2.8 4.5 3.0 1.2 0.0 0.0 1.6 6.2 7.0 3.9 3.1 1.1 0.4 0.8 2.3 7.1 13.5 12.3 5.8 4.1 1.3 0.9 0.5 0.8 1.0 0.7 0.8 0.8
0.0 0.0 0.0 0.0 0.0 0.0 0.0 0.0 0.0 5.0 20.9 7.0 1.7 6.6 5.1 5.7 4.3 5.6 3.5 0.0 0.0 0.0 5.4 12.2 10.4 5.2 3.1 2.1 1.6 0.0 1.1 4.4 18.3 16.8 11.9 5.2 1.5 0.3 0.1 0.1 1.2 0.6 0.3 0.3
0.0 0.0 0.0 0.0 0.0 0.0 0.0 0.0 0.0 4.8 30.8 0.9 1.4 3.7 5.3 3.6 3.9 6.5 1.4 1.7 1.2 1.2 10.6 11.4 8.5 5.3 3.3 5.1 3.9 3.2 6.5 9.8 21.3 17.9 21.0 8.1 1.6 1.0 0.5 4.6 6.1 1.4 0.1 0.1
0.0 0.0 0.0 0.0 0.0 0.0 0.0 0.0 0.0 0.0 20.0 1.4 0.0 0.2 0.7 2.2 2.1 6.2 3.8 10.5 8.1 12.9 14.6 12.6 9.4 7.8 5.9 3.3 2.0 4.6 6.4 10.3 9.3 13.4 18.8 13.9 2.8 1.9 4.5 3.7 1.0 0.9 0.4 0.2
0.0 0.0 0.0 0.0 0.0 0.0 0.0 4.7 0.0 0.0 3.0 0.3 0.0 0.0 0.0 0.0 0.0 1.7 3.3 6.8 6.4 5.8 13.0 8.8 6.1 4.7 5.8 3.1 7.7 1.6 8.0 4.3 6.3 7.6 12.1 7.9 6.5 5.5 2.4 2.2 2.3 2.2 0.9 0.3
0.0 0.0 0.0 0.0 0.0 0.0 0.0 1.7 0.0 0.0 12.5 0.3 0.0 0.0 0.0 0.0 0.0 0.0 4.0 1.4 0.3 3.7 3.7 5.4 5.5 5.3 2.0 3.8 2.0 1.7 4.3 0.0 6.4 7.1 6.8 3.6 6.1 4.7 2.1 0.9 3.9 2.0 0.8 1.1
0.0 0.0 0.0 0.0 0.0 0.0 0.0 0.0 0.0 0.0 3.1 15.0 3.7 0.0 0.0 0.0 0.0 0.0 0.0 0.0 0.0 0.0 0.0 8.4 7.0 4.1 0.1 2.9 3.3 1.2 3.7 3.2 5.5 10.4 6.2 2.6 2.8 3.4 2.5 2.3 2.1 0.8 0.4 0.8
0.0 0.0 0.0 0.0 0.0 0.0 0.0 0.0 0.0 0.0 1.8 16.8 6.8 0.0 0.0 0.0 0.0 0.0 0.0 0.0 0.2 0.9 5.7 8.4 4.1 1.2 2.5 0.9 2.9 2.9 1.1 2.9 9.8 10.4 10.5 9.1 6.5 5.5 4.6 3.9 2.6 1.0 0.9 2.0
0.0 0.0 0.0 0.0 0.0 0.0 0.0 44.0 0.0 0.0 0.0 11.8 10.9 0.0 0.0 0.0 0.0 0.0 0.0 0.0 0.3 0.6 2.7 5.3 1.2 0.0 0.9 4.4 5.5 4.2 4.5 2.7 2.8 5.6 6.5 9.1 9.2 6.2 3.1 2.5 0.9 0.1 0.1 0.0
0.0 0.0 0.0 0.0 0.0 0.0 4.9 16.5 0.6 0.0 0.0 15.9 14.1 6.6 0.0 0.0 0.0 0.0 0.0 0.0 0.3 2.7 5.3 3.8 1.6 0.7 1.7 6.0 2.8 1.6 0.9 0.5 0.3 0.6 0.5 1.6 1.0 0.9 0.1 0.0 0.0 0.0 0.0 0.0
0.0 0.0 0.0 0.0 0.0 0.0 3.0 0.0 0.0 0.0 2.8 5.5 15.6 10.7 5.2 0.0 4.5 7.0 0.9 4.7 3.1 2.5 2.9 1.8 1.7 1.6 2.8 11.7 1.0 0.0 0.0 0.0 0.0 0.0 0.0 0.0 0.0 0.0 0.0 0.0 0.0 0.0 0.0 0.0
0.0 0.0 0.0 0.0 0.0 17.0 0.0 0.0 0.0 0.0 7.5 16.4 7.6 4.9 14.5 0.0 5.5 5.0 5.8 2.7 11.0 1.7 5.7 1.8 2.1 6.5 11.7 7.6 1.9 0.8 0.4 0.2 0.2 0.0 0.0 0.0 0.1 0.1 0.0 0.7 0.7 0.1 0.8 2.9
0.0 0.0 9.4 48.3 9.1 0.0 0.0 2.2 29.7 19.7 7.3 4.1 4.1 1.6 10.7 3.1 7.5 9.2 8.4 6.3 6.6 8.3 3.6 0.2 5.1 7.2 3.3 2.0 2.6 3.2 1.8 2.1 1.1 1.1 0.7 1.0 0.8 1.0 1.4 1.5 2.1 2.5 2.8 2.9
0.0 34.4 26.7 2.0 0.0 0.0 11.7 32.7 26.1 11.3 12.6 1.9 1.5 0.6 3.0 3.2 14.8 7.7 6.4 11.7 7.4 8.5 4.7 5.0 8.7 8.7 5.3 4.9 5.8 3.4 1.2 0.7 0.8 1.0 1.3 1.1 0.9 1.2 1.7 2.8 1.3 1.7 1.8 2.0
0.0 0.0 0.0 0.0 21.5 19.1 14.4 14.9 8.9 5.8 4.3 1.0 1.3 0.4 0.3 1.4 3.9 13.9 7.5 10.1 13.9 13.1 5.4 11.8 12.0 6.5 4.9 4.9 4.9 1.8 0.5 0.1 0.1 0.2 0.4 0.7 0.8 1.0 1.0 1.6 1.9 2.5 3.1 3.9
0.0 11.4 15.9 14.8 21.5 24.6 14.7 9.7 5.3 6.2 4.0 3.8 1.3 5.0 3.7 2.2 11.0 16.9 12.0 12.1 13.3 5.4 15.2 16.4 12.9 7.4 4.0 3.4 2.9 2.3 1.4 1.2 0.6 1.1 1.2 1.2 1.6 2.1 2.8 3.2 5.1 5.4 6.2 8.2
12.3 24.0 22.0 15.2 13.1 9.9 8.4 5.0 3.9 4.6 5.2 5.0 2.6 5.1 8.3 8.9 16.8 23.4 20.9 15.8 5.5 13.0 13.1 10.8 10.4 7.7 8.4 5.7 4.5 4.1 5.6 6.3 6.0 5.9 6.0 7.0 6.9 7.8 9.1 7.8 8.2 6.5 7.4 9.4
12.8 8.8 11.6 9.2 9.7 8.1 7.3 5.4 5.4 4.8 8.1 7.1 7.8 8.5 11.4 14.7 19.1 14.5 10.9 9.1 8.9 9.3 9.4 15.2 8.4 6.9 6.7 5.7 5.5 5.7 6.3 6.5 7.1 7.8 7.0 9.8 8.5 7.5 10.8 9.4 8.2 6.3 6.0 5.7
5.8 7.5 11.3 7.8 6.6 7.5 8.2 7.1 7.8 5.8 10.4 9.0 10.5 14.3 15.0 16.2 10.9 9.3 7.8 6.5 12.4 12.4 8.0 6.9 7.7 7.2 7.5 8.0 8.0 8.1 8.4 7.5 6.8 6.5 6.1 6.8 6.7 6.3 6.4 6.9 6.4 5.6 4.5 4.3
4.4 10.7 12.5 11.1 9.2 10.6 11.2 8.9 8.4 6.2 8.6 12.1 7.6 12.2 12.5 10.0 10.4 12.9 11.0 14.3 17.7 10.1 8.9 8.0 8.1 8.0 8.3 8.2 8.3 8.5 7.5 6.0 5.4 5.3 4.9 4.6 4.3 3.2 2.1 2.9 4.7 3.8 4.1 3.8

GFSNW_prec_snow_210.txt.gz
Snowfall_Accumulation
0.0 0.0 0.0 0.0 0.0 0.0 0.0 0.0 24.5 0.0 0.0 17.2 34.4 23.9 7.1 0.0 0.0 0.0 2.5 5.0 8.8 11.6 10.0 13.1 17.3 10.7 1.1 0.0 1.3 4.1 3.1 13.1 8.5 2.7 0.5 0.0 1.3 6.4 8.2 21.7 21.2 22.2 26.6 19.3
0.0 0.0 0.0 0.0 0.0 0.0 0.0 12.2 7.8 0.0 0.0 29.3 17.0 5.3 3.1 2.4 3.5 1.9 4.7 7.2 10.2 11.7 12.4 14.2 9.7 6.6 0.0 0.0 0.0 5.8 3.1 14.1 12.1 7.1 0.0 0.0 3.5 1.9 7.8 18.5 23.6 31.3 32.3 26.8
0.0 0.0 0.0 0.0 0.0 0.0 0.0 7.4 32.3 5.8 5.3 2.9 5.4 6.9 7.0 7.2 0.0 2.5 0.3 8.1 9.3 11.0 6.7 6.7 8.8 6.7 0.0 0.0 0.0 0.0 0.0 12.0 10.2 9.4 8.9 7.2 10.6 6.9 4.3 15.2 32.3 19.4 17.8 13.8
0.0 0.0 0.0 0.0 0.0 0.0 0.0 19.9 30.4 0.0 21.8 16.3 7.6 7.1 9.8 6.8 5.6 0.5 0.5 7.9 6.0 8.0 11.3 6.3 4.3 4.0 2.7 0.0 0.0 0.0 1.6 16.7 8.8 6.4 7.3 3.9 3.9 9.0 7.9 8.1 9.2 14.9 14.0 6.0
0.0 0.0 0.0 0.0 0.0 0.0 0.0 60.9 14.0 3.5 4.5 0.4 6.8 14.9 15.5 7.4 2.5 8.7 4.7 4.9 2.4 3.9 8.0 7.0 5.9 5.0 2.0 4.8 0.0 0.5 0.6 8.7 10.1 8.3 6.0 3.1 7.5 9.4 5.9 4.7 6.3 7.1 3.8 4.4
0.0 0.0 0.0 0.0 0.0 0.0 0.0 3.1 0.0 10.2 5.3 3.7 9.1 7.8 4.8 5.2 6.1 0.6 1.8 4.6 7.2 6.5 4.2 1.1 1.1 1.9 2.2 4.2 5.9 5.2 5.8 8.6 7.1 8.4 2.0 3.0 9.7 8.4 4.9 2.9 1.4 1.7 1.5 2.5
0.0 0.0 0.0 0.0 0.0 0.0 0.0 0.0 1.3 21.3 17.8 8.8 5.2 2.1 2.9 5.2 4.3 7.7 2.8 1.3 4.3 0.0 0.0 0.0 0.0 0.9 0.5 0.4 1.8 2.4 7.6 7.1 9.4 7.9 5.8 15.6 6.0 2.4 0.9 0.2 0.4 0.5 0.1 0.8
0.0 0.0 0.0 0.0 0.0 0.0 0.0 0.0 0.2 15.2 16.8 4.2 4.8 4.5 4.8 1.2 2.9 4.6 3.0 1.2 0.0 0.0 1.6 6.2 7.0 3.9 3.1 1.1 0.4 0.8 2.3 7.1 13.6 12.3 5.8 4.1 1.3 0.9 0.5 0.8 1.0 0.7 0.8 0.8
0.0 0.0 0.0 0.0 0.0 0.0 0.0 0.0 0.0 6.1 21.6 7.0 1.7 6.9 5.1 5.8 4.3 5.6 3.5 0.0 0.0 0.0 5.4 12.2 10.4 5.2 3.1 2.1 1.6 0.0 1.1 4.4 18.4 16.8 12.0 5.2 1.5 0.3 0.1 0.1 1.2 0.6 0.3 0.3
0.0 0.0 0.0 0.0 0.0 0.0 0.0 0.0 0.0 5.6 32.0 1.0 1.4 3.7 5.3 3.6 3.9 6.5 1.4 1.7 1.2 1.4 10.6 11.5 8.6 5.3 3.5 5.2 3.9 3.2 6.6 10.0 21.6 18.0 21.2 8.1 1.6 1.0 0.5 4.6 6.1 1.4 0.1 0.1
0.0 0.0 0.0 0.0 0.0 0.0 0.0 0.0 0.0 0.0 20.0 1.4 0.0 0.2 0.7 2.2 2.1 6.2 3.8 10.5 8.7 12.9 15.0 12.9 9.4 7.8 5.9 3.4 2.0 4.6 6.4 10.3 9.3 13.5 19.0 13.9 2.8 1.9 4.5 3.7 1.0 0.9 0.4 0.2
0.0 0.0 0.0 0.0 0.0 0.0 0.0 4.7 0.0 0.0 3.2 0.3 0.0 0.0 0.0 0.0 0.0 1.7 4.0 8.0 7.5 8.2 14.7 9.2 6.1 5.0 5.9 3.1 7.7 1.6 8.0 4.3 6.3 7.6 12.1 7.9 6.5 5.5 2.4 2.2 2.3 2.2 0.9 0.3
0.0 0.0 0.0 0.0 0.0 0.0 0.0 1.7 0.0 0.0 13.3 0.3 0.0 0.0 0.0 0.0 0.0 0.0 4.2 2.0 1.1 4.1 4.9 6.9 5.8 5.3 2.0 3.8 2.0 1.7 4.3 0.0 6.4 7.1 6.8 3.6 6.1 4.7 2.1 0.9 3.9 2.0 0.8 1.1
0.0 0.0 0.0 0.0 0.0 0.0 0.0 0.0 0.0 0.0 3.1 15.0 3.7 0.0 0.0 0.0 0.0 0.0 0.0 0.0 0.0 0.0 0.0 8.4 7.0 4.1 0.1 2.9 3.3 1.2 3.7 3.2 5.5 10.4 6.2 2.6 2.8 3.4 2.5 2.3 2.1 0.8 0.4 0.8
0.0 0.0 0.0 0.0 0.0 0.0 0.0 0.0 0.0 0.0 1.8 16.8 6.8 0.0 0.0 0.0 0.0 0.0 0.0 0.0 0.2 1.0 5.7 8.4 4.1 1.2 2.5 0.9 2.9 2.9 1.1 2.9 9.8 10.4 10.5 9.1 6.5 5.5 4.6 3.9 2.6 1.0 0.9 2.0
0.0 0.0 0.0 0.0 0.0 0.0 0.0 44.0 0.0 0.0 0.0 11.9 10.9 0.0 0.0 0.0 0.0 0.0 0.0 0.0 0.3 0.6 2.7 5.3 1.2 0.0 0.9 4.4 5.5 4.2 4.5 2.7 2.8 5.6 6.5 9.1 9.2 6.2 3.1 2.5 0.9 0.1 0.1 0.0
0.0 0.0 0.0 0.0 0.0 0.0 4.9 16.5 0.6 0.0 0.0 16.0 14.1 6.6 0.0 0.0 0.0 0.0 0.0 0.0 0.3 2.7 5.3 3.8 1.6 0.7 1.7 6.0 2.8 1.6 0.9 0.5 0.3 0.6 0.5 1.6 1.0 0.9 0.1 0.0 0.0 0.0 0.0 0.0
0.0 0.0 0.0 0.0 0.0 0.0 3.0 0.0 0.0 0.0 2.8 5.6 15.6 10.7 5.2 0.0 4.5 7.1 0.9 4.7 3.1 2.5 2.9 1.8 1.7 1.6 2.8 11.7 1.0 0.0 0.0 0.0 0.0 0.0 0.0 0.0 0.0 0.0 0.0 0.0 0.0 0.0 0.0 0.0
0.0 0.0 0.0 0.0 0.0 17.0 0.0 0.0 0.0 0.0 7.5 16.4 7.7 4.9 14.5 0.0 5.5 5.0 5.8 2.7 11.0 1.7 5.7 1.8 2.1 6.5 11.7 7.6 1.9 0.8 0.4 0.2 0.2 0.0 0.0 0.0 0.1 0.1 0.0 0.7 0.7 0.1 0.8 2.9
0.0 0.0 9.4 48.3 9.1 0.0 0.0 2.2 29.7 19.7 7.3 4.1 4.1 1.6 10.7 3.1 7.5 9.2 8.4 6.3 6.6 8.3 3.6 0.2 5.1 7.2 3.3 2.0 2.6 3.2 1.8 2.1 1.1 1.1 0.7 1.0 0.8 1.0 1.4 1.5 2.1 2.5 2.8 2.9
0.0 34.4 26.7 2.0 0.0 0.0 11.7 32.7 26.1 11.3 12.6 1.9 1.9 0.6 3.0 3.2 14.8 7.7 6.4 11.7 7.4 8.5 4.7 5.0 8.7 8.7 5.3 4.9 5.8 3.4 1.2 0.7 0.8 1.0 1.3 1.1 0.9 1.2 1.7 2.8 1.3 1.8 1.8 2.0
0.0 0.0 0.0 0.0 21.5 19.1 14.4 14.9 8.9 5.8 4.3 1.0 1.3 0.4 0.3 1.4 3.9 13.9 7.5 10.1 13.9 13.1 5.4 11.8 12.0 6.5 4.9 4.9 4.9 1.8 0.5 0.1 0.1 0.2 0.4 0.7 0.8 1.0 1.0 1.6 1.9 2.6 3.1 3.9
0.0 11.5 16.0 14.8 21.5 24.6 14.7 9.7 5.3 6.2 4.0 3.8 1.3 5.0 3.7 2.2 11.0 16.9 12.0 12.1 13.3 5.4 15.2 16.4 12.9 7.4 4.0 3.4 2.9 2.3 1.4 1.2 0.6 1.1 1.2 1.2 1.6 2.1 2.8 3.2 5.1 5.5 6.3 8.2
12.3 24.0 22.0 15.2 13.1 9.9 8.4 5.0 3.9 4.6 5.2 5.0 2.6 5.1 8.3 8.9 16.8 23.4 20.9 15.8 5.5 13.0 13.1 10.8 10.4 7.7 8.4 5.7 4.5 4.1 5.6 6.3 6.0 5.9 6.0 7.0 6.9 7.8 9.1 7.8 8.2 6.6 7.4 9.5
12.8 8.8 11.6 9.2 9.7 8.1 7.3 5.4 5.4 4.8 8.1 7.1 7.8 8.5 11.4 14.7 19.1 14.5 10.9 9.1 8.9 9.3 9.4 15.2 8.4 6.9 6.7 5.7 5.5 5.7 6.3 6.5 7.1 7.8 7.0 9.8 8.5 7.5 10.8 9.4 8.2 6.3 6.0 5.7
5.8 7.5 11.3 7.8 6.6 7.5 8.2 7.1 7.8 5.8 10.4 9.0 10.5 14.3 15.0 16.2 10.9 9.4 7.8 6.5 12.4 12.4 8.0 6.9 7.7 7.2 7.7 8.0 8.0 8.1 8.4 7.5 6.8 6.5 6.1 6.8 6.7 6.4 6.4 7.0 6.4 5.7 4.5 4.3
4.4 10.7 12.5 11.1 9.2 10.6 11.2 8.9 8.4 6.2 8.6 12.1 7.6 12.2 12.5 10.2 10.5 12.9 11.0 14.3 17.7 10.1 8.9 8.0 8.1 8.0 8.7 8.4 8.3 8.5 7.5 6.0 5.4 5.3 4.9 4.6 4.3 3.2 2.1 2.9 4.7 3.8 4.1 3.8

GFSNW_prec_snow_216.txt.gz
Snowfall_Accumulation
0.0 0.0 0.0 0.0 0.0 0.0 0.0 0.0 24.5 0.0 0.0 17.5 34.6 24.0 7.1 0.0 0.1 0.1 2.9 5.1 8.8 11.6 11.6 13.9 18.2 11.7 2.0 0.0 1.8 4.7 3.8 14.9 10.2 4.6 1.6 1.6 4.5 10.6 14.1 29.0 26.9 26.2 29.8 23.1
0.0 0.0 0.0 0.0 0.0 0.0 0.0 12.4 7.8 0.0 0.0 29.5 17.2 5.4 3.2 2.5 3.5 1.9 4.7 7.4 10.4 12.5 14.0 14.5 10.1 8.1 1.0 0.0 1.3 7.0 4.0 14.7 12.2 7.3 0.1 0.5 4.8 3.6 10.0 21.8 27.2 33.7 34.4 28.5
0.0 0.0 0.0 0.0 0.0 0.0 0.0 7.4 32.4 5.9 5.4 3.0 5.5 7.1 7.1 7.2 0.0 2.5 0.5 8.1 9.4 11.1 6.7 6.9 8.9 6.8 0.4 0.0 0.1 0.0 0.0 12.6 11.1 9.9 9.3 7.6 10.8 7.4 5.5 16.9 33.9 20.8 18.9 14.3
0.0 0.0 0.0 0.0 0.0 0.0 0.0 21.9 31.3 0.1 22.1 16.6 7.9 7.7 10.1 6.9 6.1 1.0 0.7 8.8 6.5 8.2 11.3 6.4 4.3 4.1 2.7 0.0 0.0 0.2 1.7 16.7 8.8 6.4 7.3 3.9 3.9 9.0 7.9 8.7 9.5 15.4 14.0 6.0
0.0 0.0 0.0 0.0 0.0 0.0 0.0 61.7 14.1 4.0 4.6 0.5 7.4 15.7 15.8 7.5 2.7 8.9 4.8 5.4 3.0 4.1 8.1 7.0 5.9 5.0 2.1 4.8 0.0 0.6 0.8 8.7 10.1 8.3 6.0 3.1 7.5 9.4 5.9 4.7 6.3 7.2 3.8 4.4
0.0 0.0 0.0 0.0 0.0 0.0 0.0 3.1 0.0 10.6 5.3 3.8 9.3 8.0 4.9 5.4 6.6 0.6 1.9 4.8 7.4 6.5 4.2 1.1 1.1 1.9 2.2 4.2 5.9 5.3 5.8 8.6 7.1 8.4 2.0 3.0 9.7 8.4 4.9 2.9 1.4 1.7 1.5 2.5
0.0 0.0 0.0 0.0 0.0 0.0 0.0 0.0 1.4 22.8 18.3 8.9 5.3 2.2 3.1 5.3 4.5 8.1 2.8 1.3 4.3 0.0 0.0 0.0 0.0 0.9 0.5 0.4 1.8 2.4 7.6 7.2 9.7 8.1 5.8 15.6 6.0 2.4 0.9 0.2 0.4 0.5 0.1 0.8
0.0 0.0 0.0 0.0 0.0 0.0 0.0 0.0 0.2 18.3 18.2 4.3 4.9 4.7 5.1 1.3 3.0 4.6 3.1 1.2 0.0 0.0 1.7 6.2 7.0 3.9 3.1 1.1 0.4 0.8 2.3 7.3 14.0 12.4 5.9 4.1 1.3 0.9 0.5 0.8 1.0 0.7 0.8 0.8
0.0 0.0 0.0 0.0 0.0 0.0 0.0 0.0 0.0 11.4 26.3 8.5 1.7 7.6 5.6 6.1 4.5 5.7 3.5 0.0 0.0 0.0 5.4 12.4 10.6 5.3 3.1 2.1 1.7 0.0 1.2 4.8 19.0 17.0 12.2 5.3 1.5 0.3 0.1 0.1 1.2 0.6 0.3 0.3
0.0 0.0 0.0 0.0 0.0 0.0 0.0 0.0 0.0 6.3 33.0 1.1 1.4 3.9 5.5 3.9 4.1 6.7 1.5 1.8 1.6 1.7 10.9 11.7 8.8 5.4 3.5 5.3 4.1 3.4 7.4 11.0 22.3 18.4 21.6 8.1 1.6 1.0 0.5 4.6 6.1 1.4 0.1 0.1
0.0 0.0 0.0 0.0 0.0 0.0 0.0 0.0 0.0 0.0 20.4 1.4 0.0 0.3 0.9 2.5 2.1 6.5 4.1 10.6 9.0 13.8 16.0 13.4 9.7 7.9 6.1 3.6 2.0 5.0 7.2 11.2 9.8 14.1 19.4 14.0 2.8 1.9 4.5 3.7 1.0 0.9 0.4 0.2
0.0 0.0 0.0 0.0 0.0 0.0 0.0 4.7 0.0 0.0 3.6 0.3 0.0 0.0 0.0 0.0 0.0 1.9 4.2 8.0 8.9 12.4 19.6 12.5 7.4 5.5 6.1 3.3 7.9 1.6 8.1 4.3 6.5 7.7 12.2 7.9 6.5 5.5 2.4 2.2 2.3 2.2 0.9 0.3
0.0 0.0 0.0 0.0 0.0 0.0 0.0 1.7 0.0 0.0 13.8 0.3 0.0 0.0 0.0 0.0 0.0 0.0 4.8 2.8 2.7 6.7 7.0 9.2 8.5 6.5 2.3 4.5 2.3 1.9 4.3 0.0 6.5 7.1 6.8 3.6 6.1 4.7 2.1 0.9 3.9 2.0 0.8 1.1
0.0 0.0 0.0 0.0 0.0 0.0 0.0 0.0 0.0 0.0 3.1 15.0 3.8 0.0 0.0 0.0 0.0 0.0 0.0 0.0 0.0 0.0 0.0 8.8 7.5 4.5 0.1 3.1 3.4 1.3 3.8 3.2 5.6 10.4 6.2 2.6 2.8 3.4 2.5 2.3 2.1 0.8 0.4 0.8
0.0 0.0 0.0 0.0 0.0 0.0 0.0 0.0 0.0 0.0 1.8 16.9 6.8 0.0 0.0 0.0 0.0 0.0 0.0 0.0 0.3 1.1 6.2 8.5 4.1 1.2 2.5 0.9 2.9 2.9 1.1 2.9 9.8 10.5 10.5 9.1 6.5 5.5 4.6 3.9 2.6 1.0 0.9 2.0
0.0 0.0 0.0 0.0 0.0 0.0 0.0 44.0 0.0 0.0 0.0 12.0 10.9 0.0 0.0 0.0 0.0 0.0 0.0 0.0 0.3 0.8 2.8 5.4 1.2 0.0 0.9 4.4 5.5 4.2 4.5 2.7 2.8 5.6 6.5 9.1 9.2 6.2 3.1 2.5 0.9 0.1 0.1 0.0
0.0 0.0 0.0 0.0 0.0 0.0 4.9 16.5 0.6 0.0 0.0 16.4 14.2 6.7 0.0 0.0 0.0 0.0 0.0 0.0 0.4 2.8 5.5 3.9 1.6 0.7 1.7 6.0 2.8 1.6 0.9 0.5 0.3 0.6 0.5 1.6 1.0 0.9 0.1 0.0 0.0 0.0 0.0 0.0
0.0 0.0 0.0 0.0 0.0 0.0 3.0 0.0 0.0 0.0 2.8 5.7 15.7 10.7 5.5 0.0 4.7 7.4 0.9 4.9 3.3 2.6 3.1 1.8 1.7 1.7 2.8 11.7 1.0 0.0 0.0 0.0 0.0 0.0 0.0 0.0 0.0 0.0 0.0 0.0 0.0 0.0 0.0 0.0
0.0 0.0 0.0 0.0 0.0 17.0 0.0 0.0 0.0 0.0 7.5 16.5 7.7 4.9 14.6 0.0 5.5 5.0 5.9 2.7 11.2 1.7 5.8 1.8 2.1 6.5 11.8 7.6 1.9 0.8 0.4 0.2 0.2 0.0 0.0 0.0 0.1 0.1 0.0 0.7 0.7 0.1 0.8 2.9
0.0 0.0 9.4 48.4 9.1 0.0 0.0 2.2 29.8 19.8 7.3 4.2 4.1 1.6 10.8 3.1 7.8 9.5 8.5 6.3 6.6 8.3 3.6 0.2 5.1 7.2 3.3 2.0 2.6 3.2 1.8 2.1 1.1 1.1 0.7 1.0 0.8 1.0 1.4 1.5 2.1 2.5 2.8 2.9
0.0 34.4 26.7 2.0 0.0 0.0 11.7 32.7 26.1 11.3 12.6 1.9 1.9 0.7 3.1 3.2 14.9 7.8 6.4 11.7 7.4 8.5 4.7 5.0 8.7 8.9 5.3 4.9 5.8 3.4 1.2 0.7 0.8 1.0 1.3 1.1 0.9 1.2 1.7 2.8 1.3 1.8 1.8 2.1
0.0 0.0 0.0 0.0 21.5 19.1 14.4 14.9 8.9 5.8 4.3 1.0 1.3 0.4 0.3 1.4 3.9 13.9 7.5 10.1 13.9 13.1 5.4 11.9 12.1 6.5 4.9 4.9 4.9 1.8 0.5 0.1 0.1 0.2 0.4 0.7 0.8 1.0 1.0 1.6 1.9 2.6 3.2 4.0
0.0 11.6 16.1 14.8 21.5 24.6 14.7 9.7 5.3 6.2 4.0 3.8 1.3 5.0 3.7 2.2 11.0 16.9 12.0 12.1 13.3 5.4 15.3 16.4 13.0 7.4 4.0 3.4 2.9 2.3 1.4 1.2 0.6 1.1 1.2 1.2 1.6 2.1 2.9 3.2 5.1 5.5 6.3 8.3
12.3 24.0 22.0 15.2 13.1 9.9 8.4 5.0 3.9 4.6 5.2 5.0 2.6 5.1 8.3 8.9 16.8 23.4 20.9 15.8 5.5 13.1 13.2 10.8 10.4 7.7 8.4 5.7 4.5 4.1 5.6 6.3 6.0 5.9 6.0 7.0 6.9 7.8 9.1 7.8 8.2 6.6 7.4 9.5
12.8 8.8 11.6 9.2 9.7 8.1 7.3 5.4 5.4 4.8 8.1 7.1 7.8 8.5 11.4 14.8 19.1 14.5 10.9 9.1 8.9 9.4 9.4 15.3 8.4 6.9 6.7 5.7 5.5 5.7 6.3 6.5 7.1 7.8 7.0 9.8 8.5 7.5 10.8 9.4 8.2 6.3 6.0 5.7
5.8 7.5 11.3 7.8 6.6 7.5 8.2 7.1 7.8 5.8 10.4 9.0 10.5 14.3 15.0 16.2 10.9 9.6 7.8 6.6 12.4 12.4 8.0 6.9 7.7 7.2 7.7 8.0 8.0 8.1 8.4 7.5 6.8 6.5 6.1 6.8 6.7 6.4 6.4 7.0 6.4 5.7 4.5 4.4
4.4 10.7 12.5 11.1 9.2 10.6 11.2 8.9 8.4 6.2 8.6 12.1 7.6 12.2 12.5 10.2 10.9 13.0 11.1 14.3 17.7 10.1 8.9 8.0 8.1 8.0 8.7 8.6 8.4 8.8 7.6 6.0 5.4 5.3 4.9 4.6 4.3 3.2 2.1 2.9 4.7 3.8 4.1 3.8

GFSNW_prec_snow_222.txt.gz
Snowfall_Accumulation
0.0 0.0 0.0 0.0 0.0 0.0 0.0 0.0 25.0 0.0 0.0 18.8 35.9 24.8 7.8 0.3 0.1 0.1 2.9 5.1 9.0 11.6 11.8 14.0 18.4 12.2 3.3 0.0 1.8 5.5 3.8 15.5 10.7 5.1 1.6 1.6 4.5 14.5 21.4 36.9 32.3 29.8 33.3 26.6
0.0 0.0 0.0 0.0 0.0 0.0 0.0 12.6 7.8 0.0 0.0 30.4 18.1 5.9 3.4 2.6 3.7 2.0 4.8 7.7 10.6 12.8 14.7 15.3 10.6 8.7 1.3 0.0 1.4 7.5 4.5 15.6 12.8 8.0 0.3 0.5 5.4 4.4 11.3 23.7 30.3 36.9 37.6 31.7
0.0 0.0 0.0 0.0 0.0 0.0 0.0 7.4 32.7 5.9 5.4 3.3 6.3 8.0 7.7 7.6 0.0 2.5 0.9 8.6 9.5 11.4 6.9 6.9 9.3 7.2 1.3 0.0 0.1 0.0 0.0 13.6 12.2 10.9 10.6 9.0 11.6 7.8 6.1 17.2 35.3 22.2 20.5 16.3
0.0 0.0 0.0 0.0 0.0 0.0 0.0 21.9 31.5 0.4 23.0 17.5 9.2 8.9 10.9 7.4 6.3 1.0 0.7 9.1 7.7 10.0 12.1 6.6 4.5 4.8 3.4 0.2 0.0 0.2 1.7 17.3 9.3 6.5 7.3 3.9 3.9 9.0 7.9 8.9 9.5 15.6 15.2 6.7
0.0 0.0 0.0 0.0 0.0 0.0 0.0 62.0 14.6 4.5 5.0 1.1 8.1 16.6 16.6 8.1 2.7 9.3 4.8 5.9 3.7 5.7 10.5 7.3 7.7 5.6 2.4 5.1 0.1 0.7 1.0 9.2 10.2 8.3 6.0 3.1 7.6 9.4 5.9 4.7 6.3 7.3 3.8 4.4
0.0 0.0 0.0 0.0 0.0 0.0 0.0 3.1 0.0 11.6 5.3 4.1 10.3 9.1 5.9 6.2 6.9 0.6 2.3 5.1 7.8 7.0 4.5 1.2 1.1 1.9 2.2 4.2 5.9 5.3 5.9 8.7 7.2 8.4 2.0 3.0 9.7 8.4 4.9 2.9 1.4 1.7 1.5 2.5
0.0 0.0 0.0 0.0 0.0 0.0 0.0 0.0 1.4 23.6 18.7 9.7 6.5 3.3 4.2 5.6 4.8 8.6 2.8 1.3 4.9 0.0 0.0 0.0 0.0 0.9 0.5 0.4 1.8 2.4 7.6 7.2 9.7 8.1 5.8 15.6 6.0 2.4 0.9 0.2 0.4 0.5 0.1 0.8
0.0 0.0 0.0 0.0 0.0 0.0 0.0 0.0 0.2 19.3 19.0 5.0 6.2 4.7 5.4 1.5 3.1 4.7 3.2 1.2 0.0 0.0 1.8 6.6 7.2 3.9 3.1 1.1 0.4 0.8 2.3 7.5 14.4 12.7 6.0 4.1 1.3 0.9 0.5 0.8 1.0 0.7 0.8 0.8
0.0 0.0 0.0 0.0 0.0 0.0 0.0 0.0 0.0 11.8 26.9 9.2 2.0 8.1 6.0 7.0 5.4 6.4 3.7 0.0 0.0 0.0 6.1 12.6 10.8 5.4 3.2 2.1 1.7 0.0 1.2 4.8 19.5 17.2 12.6 5.5 1.8 0.3 0.1 0.1 1.2 0.6 0.3 0.3
0.0 0.0 0.0 0.0 0.0 0.0 0.0 0.0 0.0 6.3 33.3 1.3 1.6 4.7 6.6 5.3 5.3 7.8 2.3 2.7 1.6 2.3 11.3 12.5 9.4 5.9 3.5 5.5 4.1 3.7 7.8 11.7 22.8 18.9 22.1 8.4 1.8 1.0 0.5 4.6 6.2 1.4 0.1 0.1
0.0 0.0 0.0 0.0 0.0 0.0 0.0 0.0 0.0 0.0 20.8 1.6 0.0 0.3 1.2 3.4 3.0 7.7 6.0 11.0 9.9 14.5 17.4 14.6 10.8 8.8 6.9 4.2 2.0 5.2 7.5 12.7 11.0 15.1 20.4 15.1 2.8 1.9 4.6 4.0 1.0 0.9 0.4 0.2
0.0 0.0 0.0 0.0 0.0 0.0 0.0 4.7 0.0 0.0 3.9 0.3 0.0 0.0 0.0 0.0 0.0 2.8 5.0 9.1 9.8 13.6 19.9 14.5 8.9 6.7 7.4 4.2 8.7 1.6 8.5 4.3 7.9 8.4 14.7 8.4 6.5 5.6 2.4 2.2 2.3 2.2 0.9 0.3
0.0 0.0 0.0 0.0 0.0 0.0 0.0 1.7 0.0 0.0 13.9 0.3 0.0 0.0 0.0 0.0 0.0 0.0 5.5 3.9 2.7 7.1 7.8 10.0 9.1 9.1 4.2 7.1 4.4 2.7 4.7 0.3 6.9 7.5 6.8 3.9 6.1 4.7 2.1 0.9 3.9 2.0 0.8 1.1
0.0 0.0 0.0 0.0 0.0 0.0 0.0 0.0 0.0 0.0 3.1 15.2 4.1 0.0 0.0 0.0 0.0 0.0 0.0 0.0 0.0 0.0 0.0 9.8 8.3 4.8 0.4 3.7 3.6 1.5 4.4 3.4 5.9 11.0 6.5 3.1 2.8 3.4 2.5 2.3 2.1 0.8 0.4 0.8
0.0 0.0 0.0 0.0 0.0 0.0 0.0 0.0 0.0 0.0 1.8 17.0 6.8 0.0 0.0 0.0 0.0 0.0 0.0 0.0 0.3 1.4 6.7 9.1 4.5 1.3 2.5 0.9 2.9 2.9 1.1 2.9 9.9 11.0 10.7 9.1 6.5 5.5 4.6 3.9 2.6 1.0 0.9 2.0
0.0 0.0 0.0 0.0 0.0 0.0 0.0 44.0 0.0 0.0 0.0 12.3 11.0 0.0 0.0 0.0 0.0 0.0 0.0 0.0 0.3 1.0 3.1 5.9 1.6 0.0 0.9 4.5 5.5 4.2 4.5 2.7 2.8 5.6 6.5 9.1 9.2 6.2 3.1 2.5 0.9 0.1 0.1 0.0
0.0 0.0 0.0 0.0 0.0 0.0 4.9 16.9 0.6 0.0 0.0 16.9 14.4 7.4 0.0 0.0 0.0 0.0 0.0 0.0 0.4 2.8 5.9 4.3 2.0 1.4 1.7 6.1 2.9 1.6 0.9 0.5 0.3 0.6 0.5 1.6 1.0 0.9 0.1 0.0 0.0 0.0 0.0 0.0
0.0 0.0 0.0 0.0 0.0 0.0 3.0 0.0 0.0 0.0 2.8 5.7 16.1 11.0 6.0 0.0 5.2 8.8 0.9 5.7 3.3 3.0 3.4 2.4 2.0 1.7 2.8 12.0 1.0 0.0 0.0 0.0 0.0 0.0 0.0 0.0 0.0 0.0 0.0 0.0 0.0 0.0 0.0 0.0
0.0 0.0 0.0 0.0 0.0 17.0 0.0 0.0 0.0 0.0 7.5 16.8 7.8 5.0 15.3 0.0 5.5 5.0 6.3 2.7 11.7 1.7 5.9 2.1 2.1 6.5 12.3 8.0 1.9 0.8 0.4 0.2 0.7 0.0 0.0 0.0 0.1 0.1 0.0 0.7 0.7 0.1 0.8 2.9
0.0 0.0 9.4 48.4 9.1 0.0 0.0 2.2 29.8 19.9 7.3 4.3 4.1 1.7 11.3 3.1 8.2 10.6 9.2 6.9 6.9 8.6 3.9 0.2 5.1 7.2 3.3 2.0 2.6 3.2 1.8 2.1 1.1 1.1 0.7 1.0 0.8 1.0 1.4 1.5 2.1 2.5 2.8 2.9
0.0 34.4 26.7 2.0 0.0 0.0 11.7 32.7 26.3 11.4 12.8 2.0 2.0 0.9 3.4 3.2 15.1 8.0 6.6 11.7 7.4 8.5 4.8 5.0 9.0 9.8 5.6 4.9 5.8 3.4 1.2 0.7 0.8 1.0 1.3 1.1 0.9 1.2 1.7 2.8 1.3 1.8 1.8 2.1
0.0 0.0 0.0 0.0 21.5 19.2 14.5 14.9 8.9 5.8 4.3 1.0 1.5 0.6 0.3 1.4 3.9 14.0 7.6 10.2 13.9 13.1 5.4 11.9 12.3 7.0 4.9 4.9 4.9 1.8 0.5 0.1 0.1 0.2 0.4 0.7 0.8 1.0 1.0 1.6 1.9 2.6 3.2 4.0
0.0 11.6 16.1 14.9 21.5 24.7 14.7 9.7 5.3 6.2 4.0 3.8 1.3 5.1 3.7 2.2 11.1 17.2 12.2 12.1 13.5 5.4 15.6 16.6 13.7 7.8 4.0 3.4 2.9 2.3 1.4 1.2 0.6 1.1 1.2 1.2 1.6 2.1 2.9 3.2 5.1 5.5 6.3 8.3
12.3 24.0 22.0 15.2 13.1 9.9 8.4 5.0 3.9 4.6 5.2 5.0 2.6 5.2 8.4 9.1 16.8 23.4 21.1 15.9 5.7 13.3 13.3 10.8 11.4 7.7 8.4 5.7 4.5 4.1 5.6 6.3 6.0 5.9 6.0 7.0 6.9 7.8 9.1 7.8 8.2 6.6 7.4 9.5
12.8 8.8 11.6 9.2 9.7 8.1 7.3 5.4 5.4 4.8 8.1 7.1 7.9 8.5 11.6 15.0 19.4 14.6 11.0 9.3 9.0 9.4 9.4 16.2 8.4 6.9 6.7 5.7 5.5 5.7 6.3 6.5 7.1 7.8 7.0 9.8 8.5 7.5 10.8 9.4 8.2 6.3 6.0 5.7
5.8 7.5 11.3 7.8 6.6 7.5 8.2 7.1 7.8 5.8 10.4 9.0 10.5 14.4 15.2 16.2 11.0 9.8 7.9 6.6 12.4 12.6 8.7 7.0 7.7 7.2 7.7 8.0 8.0 8.1 8.4 7.5 6.8 6.5 6.1 6.8 6.7 6.4 6.4 7.0 6.4 5.7 4.5 4.4
4.4 10.7 12.5 11.1 9.2 10.6 11.2 8.9 8.4 6.2 8.6 12.2 7.7 12.3 12.6 10.3 11.0 13.0 11.1 14.4 17.9 10.4 9.2 8.0 8.1 8.0 8.7 8.6 8.4 8.8 7.6 6.0 5.5 5.3 4.9 4.6 4.3 3.2 2.1 2.9 4.7 3.9 4.1 3.8

GFSNW_prec_snow_225.txt.gz
Snowfall_Accumulation
0.0 0.0 0.0 0.0 0.0 0.0 0.0 0.0 25.0 0.0 0.0 18.8 35.9 24.8 7.8 0.5 0.1 0.1 2.9 5.1 9.1 11.7 11.9 14.0 18.4 12.4 3.7 0.0 1.8 5.5 3.8 15.5 10.7 5.2 1.6 1.6 4.5 15.8 23.6 40.0 35.6 32.5 36.2 29.0
0.0 0.0 0.0 0.0 0.0 0.0 0.0 12.6 7.8 0.0 0.0 30.4 18.1 5.9 3.4 2.6 3.7 2.0 4.8 7.7 10.9 12.8 14.7 15.7 10.6 8.7 1.3 0.0 1.6 7.5 4.5 15.6 12.8 8.0 0.3 0.5 6.3 5.3 12.5 25.6 32.2 38.8 39.2 33.4
0.0 0.0 0.0 0.0 0.0 0.0 0.0 7.4 32.7 5.9 5.4 3.3 6.3 8.0 7.7 7.6 0.0 2.5 0.9 8.8 9.8 11.4 6.9 7.2 9.4 7.2 1.7 0.0 0.4 0.0 0.0 14.1 12.6 11.4 11.0 9.0 11.6 8.7 6.4 17.7 36.6 23.7 21.9 17.6
0.0 0.0 0.0 0.0 0.0 0.0 0.0 21.9 31.5 0.4 23.0 17.5 9.2 8.9 10.9 7.4 6.3 1.0 0.7 9.1 8.1 10.7 13.1 6.8 4.5 4.8 3.4 0.2 0.9 0.5 1.8 17.3 9.3 6.5 7.3 3.9 3.9 9.0 8.1 8.9 9.7 15.9 16.1 7.7
0.0 0.0 0.0 0.0 0.0 0.0 0.0 62.0 14.6 4.5 5.0 1.1 8.1 16.6 16.6 8.1 2.7 9.5 4.8 5.9 3.8 6.1 10.9 7.6 8.1 5.6 2.4 5.1 0.1 0.7 1.0 9.2 10.2 8.3 6.0 3.1 7.6 9.4 5.9 4.7 6.5 7.4 3.8 4.5
0.0 0.0 0.0 0.0 0.0 0.0 0.0 3.1 0.0 11.6 5.3 4.1 10.3 9.1 6.1 6.2 6.9 0.6 2.3 5.1 7.9 7.0 4.5 1.2 1.1 1.9 2.2 4.2 5.9 5.3 5.9 8.7 7.2 8.4 2.0 3.0 9.7 8.4 4.9 2.9 1.4 1.7 1.6 2.6
0.0 0.0 0.0 0.0 0.0 0.0 0.0 0.0 1.4 23.6 18.7 9.7 6.5 3.3 4.3 5.6 5.0 8.8 2.8 1.3 5.1 0.0 0.0 0.0 0.0 0.9 0.5 0.4 1.8 2.4 7.6 7.2 9.7 8.1 5.8 15.6 6.0 2.4 0.9 0.2 0.4 0.5 0.1 0.8
0.0 0.0 0.0 0.0 0.0 0.0 0.0 0.0 0.2 19.3 19.0 5.0 6.2 4.7 5.5 1.5 3.1 4.7 3.4 1.2 0.0 0.0 1.8 6.6 7.2 3.9 3.1 1.1 0.4 0.8 2.3 7.5 14.4 12.7 6.0 4.1 1.3 0.9 0.5 0.8 1.0 0.7 0.8 0.8
0.0 0.0 0.0 0.0 0.0 0.0 0.0 0.0 0.0 11.8 26.9 9.2 2.0 8.1 6.0 7.0 5.4 6.4 3.7 0.0 0.0 0.0 6.1 12.6 10.8 5.4 3.2 2.1 1.7 0.0 1.2 4.8 19.5 17.2 12.6 5.5 2.3 0.3 0.1 0.1 1.3 0.6 0.3 0.3
0.0 0.0 0.0 0.0 0.0 0.0 0.0 0.0 0.0 6.3 33.4 1.3 1.6 4.7 6.8 5.5 5.3 7.8 2.3 2.7 1.6 2.3 11.3 12.5 9.6 5.9 3.5 5.5 4.1 3.7 7.8 11.9 22.8 18.9 22.2 8.4 1.8 1.1 0.5 4.7 6.4 1.4 0.1 0.1
0.0 0.0 0.0 0.0 0.0 0.0 0.0 0.0 0.0 0.0 20.8 1.6 0.0 0.3 1.2 3.4 3.0 7.7 6.0 11.0 9.9 14.5 17.4 14.6 10.8 9.0 7.3 4.2 2.1 5.4 7.5 12.7 11.3 15.1 21.2 15.5 2.8 1.9 4.6 4.5 1.2 0.9 0.4 0.2
0.0 0.0 0.0 0.0 0.0 0.0 0.0 4.7 0.0 0.0 3.9 0.3 0.0 0.0 0.0 0.0 0.0 2.8 5.0 9.1 10.0 13.6 19.9 14.5 8.9 7.1 8.5 5.4 9.7 2.5 8.8 4.6 8.1 8.4 15.3 8.4 6.5 5.6 2.4 2.2 2.3 2.2 0.9 0.3
0.0 0.0 0.0 0.0 0.0 0.0 0.0 1.7 0.0 0.0 13.9 0.3 0.0 0.0 0.0 0.0 0.0 0.0 5.5 3.9 2.7 7.1 7.8 10.1 9.1 9.1 5.0 7.1 4.4 3.6 4.7 0.8 7.3 8.2 6.8 3.9 6.1 4.7 2.1 0.9 3.9 2.0 0.8 1.1
0.0 0.0 0.0 0.0 0.0 0.0 0.0 0.0 0.0 0.0 3.1 15.2 4.1 0.0 0.0 0.0 0.0 0.0 0.0 0.0 0.0 0.0 0.0 9.8 8.3 4.8 0.4 3.7 3.8 1.5 4.4 3.4 5.9 11.0 7.1 4.0 2.8 3.4 2.5 2.3 2.1 0.8 0.4 0.8
0.0 0.0 0.0 0.0 0.0 0.0 0.0 0.0 0.0 0.0 1.8 17.0 6.8 0.0 0.0 0.0 0.0 0.0 0.0 0.0 0.3 1.4 6.7 9.1 4.5 1.3 2.5 0.9 3.0 2.9 1.1 2.9 9.9 11.0 10.7 9.1 6.5 5.5 4.6 3.9 2.6 1.0 0.9 2.0
0.0 0.0 0.0 0.0 0.0 0.0 0.0 44.0 0.0 0.0 0.0 12.4 11.0 0.0 0.0 0.0 0.0 0.0 0.0 0.0 0.3 1.0 3.1 5.9 1.6 0.0 0.9 4.5 5.5 4.2 4.5 2.7 2.8 5.6 6.5 9.1 9.2 6.2 3.1 2.5 0.9 0.1 0.1 0.0
0.0 0.0 0.0 0.0 0.0 0.0 4.9 16.9 0.6 0.0 0.0 16.9 14.4 7.4 0.0 0.0 0.0 0.0 0.0 0.0 0.4 2.8 5.9 4.3 2.0 1.4 1.7 6.1 2.9 1.7 0.9 0.5 0.3 0.6 0.5 1.6 1.0 0.9 0.1 0.0 0.0 0.0 0.0 0.0
0.0 0.0 0.0 0.0 0.0 0.0 3.0 0.0 0.0 0.0 2.8 5.7 16.1 11.0 6.0 0.0 5.2 8.8 0.9 5.7 3.3 3.0 3.4 2.4 2.0 1.7 2.8 12.0 1.0 0.0 0.0 0.0 0.0 0.0 0.0 0.0 0.0 0.0 0.0 0.0 0.0 0.0 0.0 0.0
0.0 0.0 0.0 0.0 0.0 17.0 0.0 0.0 0.0 0.0 7.5 16.8 7.8 5.0 15.3 0.0 5.5 5.0 6.3 2.7 11.7 1.7 5.9 2.1 2.1 6.5 12.3 8.0 2.0 0.8 0.4 0.2 0.7 0.0 0.0 0.0 0.1 0.1 0.0 0.7 0.7 0.1 0.8 2.9
0.0 0.0 9.4 48.4 9.1 0.0 0.0 2.2 29.8 20.0 7.3 4.3 4.1 1.7 11.3 3.1 8.2 10.6 9.2 6.9 6.9 8.6 3.9 0.2 5.1 7.2 3.3 2.0 2.6 3.2 1.8 2.1 1.1 1.1 0.7 1.0 0.8 1.0 1.4 1.5 2.1 2.5 2.8 2.9
0.0 34.4 26.7 2.0 0.0 0.0 11.7 32.7 26.3 11.4 12.8 2.0 2.0 0.9 3.4 3.2 15.1 8.0 6.6 11.7 7.4 8.5 4.8 5.0 9.0 9.8 5.6 4.9 5.8 3.4 1.2 0.7 0.8 1.0 1.3 1.1 0.9 1.2 1.7 2.8 1.3 1.8 1.8 2.1
0.0 0.0 0.0 0.0 21.5 19.3 14.6 14.9 8.9 5.8 4.3 1.0 1.5 0.6 0.3 1.4 3.9 14.0 7.6 10.2 13.9 13.1 5.4 11.9 12.3 7.0 4.9 4.9 4.9 1.8 0.5 0.1 0.1 0.2 0.4 0.7 0.8 1.0 1.0 1.6 1.9 2.6 3.2 4.0
0.0 11.6 16.1 14.9 21.5 24.7 14.7 9.7 5.3 6.2 4.0 3.8 1.3 5.1 3.7 2.2 11.1 17.2 12.2 12.1 13.5 5.4 15.6 16.6 13.7 7.8 4.0 3.4 2.9 2.3 1.4 1.2 0.6 1.1 1.2 1.2 1.6 2.1 2.9 3.2 5.1 5.5 6.3 8.3
12.3 24.0 22.0 15.2 13.1 9.9 8.4 5.0 3.9 4.6 5.2 5.0 2.6 5.2 8.4 9.1 16.8 23.4 21.1 15.9 5.7 13.3 13.3 10.8 11.4 7.7 8.4 5.7 4.5 4.1 5.6 6.3 6.0 5.9 6.0 7.0 6.9 7.8 9.1 7.8 8.2 6.6 7.4 9.5
12.8 8.8 11.6 9.2 9.7 8.1 7.3 5.4 5.4 4.8 8.1 7.1 7.9 8.5 11.6 15.0 19.4 14.6 11.0 9.3 9.0 9.4 9.4 16.2 8.4 6.9 6.7 5.7 5.5 5.7 6.3 6.5 7.1 7.8 7.0 9.8 8.5 7.5 10.8 9.4 8.2 6.3 6.0 5.7
5.8 7.5 11.3 7.8 6.6 7.5 8.2 7.1 7.8 5.8 10.4 9.0 10.5 14.4 15.2 16.2 11.0 9.8 7.9 6.6 12.4 12.6 8.8 7.0 7.7 7.2 7.7 8.0 8.0 8.1 8.4 7.5 6.8 6.5 6.1 6.9 6.7 6.4 6.4 7.0 6.5 5.7 4.5 4.4
4.4 10.7 12.5 11.1 9.2 10.6 11.2 8.9 8.4 6.2 8.6 12.2 7.7 12.3 12.6 10.3 11.0 13.0 11.1 14.4 17.9 10.4 9.2 8.0 8.1 8.0 8.7 8.6 8.4 8.8 7.6 6.0 5.5 5.3 4.9 4.6 4.3 3.2 2.1 2.9 4.7 3.9 4.1 3.8

GFSNW_prec_snow_228.txt.gz
Snowfall_Accumulation
0.0 0.0 0.0 0.0 0.0 0.0 0.0 0.0 25.0 0.0 0.0 18.8 35.9 24.8 7.8 0.5 0.1 0.1 2.9 5.1 9.1 11.8 11.9 14.0 18.4 12.5 4.0 0.3 2.4 5.5 3.8 15.7 10.7 5.2 1.6 1.6 5.9 17.3 25.5 41.8 37.8 35.1 38.3 31.5
0.0 0.0 0.0 0.0 0.0 0.0 0.0 12.6 7.8 0.0 0.0 30.4 18.1 5.9 3.4 2.6 3.7 2.0 4.8 7.7 10.9 12.8 14.7 15.7 10.6 8.9 1.3 0.0 2.2 8.6 5.0 16.7 12.8 8.0 0.5 0.5 6.7 6.0 13.0 26.7 33.6 40.2 40.4 34.8
0.0 0.0 0.0 0.0 0.0 0.0 0.0 7.4 32.7 5.9 5.4 3.3 6.3 8.0 7.7 7.6 0.0 2.5 0.9 8.8 9.9 11.4 6.9 7.2 9.4 7.2 1.7 0.0 0.4 0.0 0.0 14.9 13.3 11.9 11.5 9.1 11.6 9.1 6.5 17.8 36.6 24.3 22.8 18.9
0.0 0.0 0.0 0.0 0.0 0.0 0.0 21.9 31.5 0.4 23.0 17.5 9.2 8.9 10.9 7.4 6.3 1.0 0.7 9.1 8.1 10.8 13.1 6.8 4.5 4.8 3.4 0.2 0.9 0.5 1.8 17.3 9.3 6.5 7.3 3.9 3.9 9.0 8.1 8.9 9.7 15.9 16.5 8.0
0.0 0.0 0.0 0.0 0.0 0.0 0.0 62.0 14.6 4.5 5.0 1.1 8.1 16.6 16.6 8.1 2.7 9.5 4.8 5.9 3.8 6.1 10.9 7.6 8.1 5.6 2.4 5.1 0.1 0.7 1.0 9.2 10.2 8.3 6.0 3.1 7.6 9.4 5.9 4.7 6.7 7.4 3.8 4.6
0.0 0.0 0.0 0.0 0.0 0.0 0.0 3.1 0.0 11.6 5.3 4.1 10.3 9.1 6.1 6.2 6.9 0.6 2.3 5.1 7.9 7.0 4.5 1.2 1.1 1.9 2.2 4.2 5.9 5.3 5.9 8.7 7.2 8.4 2.0 3.0 9.7 8.4 4.9 2.9 1.4 1.7 1.6 2.6
0.0 0.0 0.0 0.0 0.0 0.0 0.0 0.0 1.4 23.6 18.7 9.7 6.5 3.3 4.3 5.6 5.0 8.8 2.8 1.3 5.1 0.0 0.0 0.0 0.0 0.9 0.5 0.4 1.8 2.4 7.6 7.2 9.7 8.1 5.8 15.6 6.1 2.4 0.9 0.2 0.4 0.5 0.1 0.8
0.0 0.0 0.0 0.0 0.0 0.0 0.0 0.0 0.2 19.3 19.0 5.0 6.2 4.7 5.5 1.5 3.1 4.7 3.4 1.2 0.0 0.0 1.8 6.6 7.2 3.9 3.1 1.1 0.4 0.8 2.3 7.5 14.4 12.7 6.0 4.1 1.4 0.9 0.6 0.8 1.0 0.7 0.8 0.8
0.0 0.0 0.0 0.0 0.0 0.0 0.0 0.0 0.0 11.8 26.9 9.2 2.0 8.1 6.0 7.0 5.4 6.4 3.7 0.0 0.0 0.0 6.1 12.6 10.8 5.4 3.2 2.1 1.7 0.0 1.2 4.8 19.5 17.2 12.6 5.5 3.0 0.6 0.1 0.1 1.7 0.6 0.3 0.3
0.0 0.0 0.0 0.0 0.0 0.0 0.0 0.0 0.0 6.3 33.4 1.3 1.6 4.7 6.8 5.5 5.3 7.8 2.3 2.7 1.6 2.3 11.3 12.5 9.6 6.0 3.5 5.6 4.1 3.7 7.8 11.9 22.8 18.9 22.2 8.4 1.8 1.1 0.5 5.3 8.0 1.4 0.2 0.1
0.0 0.0 0.0 0.0 0.0 0.0 0.0 0.0 0.0 0.0 20.8 1.6 0.0 0.3 1.2 3.4 3.0 7.7 6.0 11.0 9.9 14.5 17.4 14.6 10.8 9.5 8.2 4.8 2.6 5.6 7.5 12.7 11.3 15.1 21.7 15.8 2.8 1.9 5.0 5.5 1.2 0.9 0.4 0.2
0.0 0.0 0.0 0.0 0.0 0.0 0.0 4.7 0.0 0.0 3.9 0.3 0.0 0.0 0.0 0.0 0.0 2.8 5.0 9.1 10.0 13.6 19.9 14.5 8.9 7.1 8.5 5.4 10.3 2.5 9.1 5.2 8.6 8.5 15.6 8.7 6.5 5.6 2.4 2.2 2.3 2.2 0.9 0.3
0.0 0.0 0.0 0.0 0.0 0.0 0.0 1.7 0.0 0.0 13.9 0.3 0.0 0.0 0.0 0.0 0.0 0.0 5.5 3.9 2.7 7.1 7.8 10.1 9.1 9.1 5.0 7.2 4.4 3.6 4.7 0.8 7.3 9.8 7.7 3.9 6.7 4.7 2.1 0.9 3.9 2.0 0.8 1.1
0.0 0.0 0.0 0.0 0.0 0.0 0.0 0.0 0.0 0.0 3.1 15.2 4.1 0.0 0.0 0.0 0.0 0.0 0.0 0.0 0.0 0.0 0.0 9.8 8.3 4.8 0.4 3.7 3.8 1.5 4.4 3.4 5.9 11.0 7.1 4.0 2.8 3.4 2.5 2.3 2.1 0.8 0.4 0.8
0.0 0.0 0.0 0.0 0.0 0.0 0.0 0.0 0.0 0.0 1.8 17.0 6.8 0.0 0.0 0.0 0.0 0.0 0.0 0.0 0.3 1.4 6.7 9.1 4.5 1.3 2.5 0.9 3.0 2.9 1.1 2.9 9.9 11.0 10.7 9.1 6.5 5.5 4.6 3.9 2.6 1.0 0.9 2.0
0.0 0.0 0.0 0.0 0.0 0.0 0.0 44.0 0.0 0.0 0.0 12.4 11.0 0.0 0.0 0.0 0.0 0.0 0.0 0.0 0.3 1.0 3.1 5.9 1.6 0.0 0.9 4.5 5.5 4.2 4.5 2.7 2.8 5.6 6.5 9.1 9.2 6.2 3.1 2.5 0.9 0.1 0.1 0.0
0.0 0.0 0.0 0.0 0.0 0.0 4.9 16.9 0.6 0.0 0.0 16.9 14.4 7.4 0.0 0.0 0.0 0.0 0.0 0.0 0.4 2.8 5.9 4.3 2.0 1.4 1.7 6.1 2.9 1.7 0.9 0.5 0.3 0.6 0.5 1.6 1.0 0.9 0.1 0.0 0.0 0.0 0.0 0.0
0.0 0.0 0.0 0.0 0.0 0.0 3.0 0.0 0.0 0.0 2.8 5.7 16.1 11.0 6.0 0.0 5.2 8.8 0.9 5.7 3.3 3.0 3.4 2.4 2.0 1.7 2.8 12.0 1.0 0.0 0.0 0.0 0.0 0.0 0.0 0.0 0.0 0.0 0.0 0.0 0.0 0.0 0.0 0.0
0.0 0.0 0.0 0.0 0.0 17.0 0.0 0.0 0.0 0.0 7.5 16.8 7.8 5.0 15.3 0.0 5.5 5.0 6.3 2.7 11.7 1.7 5.9 2.1 2.1 6.5 12.3 8.0 2.0 0.8 0.4 0.2 0.7 0.0 0.0 0.0 0.1 0.1 0.0 0.7 0.7 0.1 0.8 2.9
0.0 0.0 9.4 48.4 9.1 0.0 0.0 2.2 29.8 20.0 7.3 4.3 4.1 1.7 11.3 3.1 8.2 10.6 9.2 6.9 6.9 8.6 3.9 0.2 5.1 7.2 3.3 2.0 2.6 3.2 1.8 2.1 1.1 1.1 0.7 1.0 0.8 1.0 1.4 1.5 2.1 2.5 2.8 2.9
0.0 34.4 26.7 2.0 0.0 0.0 11.7 32.7 26.3 11.4 12.8 2.0 2.0 0.9 3.4 3.2 15.1 8.0 6.6 11.7 7.4 8.5 4.8 5.0 9.0 9.8 5.6 4.9 5.8 3.4 1.2 0.7 0.8 1.0 1.3 1.1 0.9 1.2 1.7 2.8 1.3 1.8 1.8 2.1
0.0 0.0 0.0 0.0 21.5 19.3 14.6 14.9 8.9 5.8 4.3 1.0 1.5 0.6 0.3 1.4 3.9 14.0 7.6 10.2 13.9 13.1 5.4 11.9 12.3 7.0 4.9 4.9 4.9 1.8 0.5 0.1 0.1 0.2 0.4 0.7 0.8 1.0 1.0 1.6 1.9 2.6 3.2 4.0
0.0 11.6 16.1 14.9 21.5 24.7 14.7 9.7 5.3 6.2 4.0 3.8 1.3 5.1 3.7 2.2 11.1 17.2 12.2 12.1 13.5 5.4 15.6 16.6 13.7 7.8 4.0 3.4 2.9 2.3 1.4 1.2 0.6 1.1 1.2 1.2 1.6 2.1 2.9 3.2 5.1 5.5 6.3 8.3
12.3 24.0 22.0 15.2 13.1 9.9 8.4 5.0 3.9 4.6 5.2 5.0 2.6 5.2 8.4 9.1 16.8 23.4 21.1 15.9 5.7 13.3 13.3 10.8 11.4 7.7 8.4 5.7 4.5 4.1 5.6 6.3 6.0 5.9 6.0 7.0 6.9 7.8 9.1 7.8 8.2 6.6 7.4 9.5
12.8 8.8 11.6 9.2 9.7 8.1 7.3 5.4 5.4 4.8 8.1 7.1 7.9 8.5 11.6 15.0 19.4 14.6 11.0 9.3 9.0 9.4 9.4 16.2 8.4 6.9 6.7 5.7 5.5 5.7 6.3 6.5 7.1 7.8 7.0 9.8 8.5 7.5 10.8 9.4 8.2 6.3 6.0 5.7
5.8 7.5 11.3 7.8 6.6 7.5 8.2 7.1 7.8 5.8 10.4 9.0 10.5 14.4 15.2 16.2 11.0 9.8 7.9 6.6 12.4 12.6 8.8 7.0 7.7 7.2 7.7 8.0 8.0 8.1 8.4 7.5 6.8 6.5 6.1 6.9 6.7 6.4 6.4 7.0 6.5 5.7 4.5 4.4
4.4 10.7 12.5 11.1 9.2 10.6 11.2 8.9 8.4 6.2 8.6 12.2 7.7 12.3 12.6 10.3 11.0 13.0 11.1 14.4 17.9 10.4 9.2 8.0 8.1 8.0 8.7 8.6 8.4 8.8 7.6 6.0 5.5 5.3 4.9 4.6 4.3 3.2 2.1 2.9 4.7 3.9 4.1 3.8

GFSNW_prec_snow_234.txt.gz
Snowfall_Accumulation
0.0 0.0 0.0 0.0 0.0 0.0 0.0 0.0 25.0 0.0 0.0 18.8 35.9 24.8 7.8 0.5 0.1 0.1 2.9 5.1 9.1 11.9 11.9 14.0 18.4 12.5 4.0 0.3 2.6 5.7 4.7 18.2 11.0 5.2 1.6 1.6 6.8 19.6 28.4 45.0 42.2 38.1 39.6 33.2
0.0 0.0 0.0 0.0 0.0 0.0 0.0 12.6 7.8 0.0 0.0 30.4 18.1 5.9 3.4 2.6 3.7 2.0 4.8 7.7 10.9 12.8 14.7 15.8 10.6 8.9 1.3 0.0 2.2 9.3 7.1 17.8 12.8 8.0 1.2 0.5 6.7 6.3 14.1 28.3 35.5 42.5 41.8 37.2
0.0 0.0 0.0 0.0 0.0 0.0 0.0 7.4 32.7 5.9 5.4 3.3 6.3 8.0 7.7 7.6 0.0 2.5 0.9 8.8 9.9 11.4 6.9 7.2 9.4 7.2 1.7 0.0 0.4 0.0 0.4 15.0 13.7 12.3 12.5 9.4 11.6 9.1 6.6 17.8 37.7 25.7 24.5 21.2
0.0 0.0 0.0 0.0 0.0 0.0 0.0 21.9 31.5 0.4 23.0 17.5 9.2 8.9 10.9 7.4 6.3 1.0 0.7 9.1 8.1 10.8 13.1 6.8 4.5 4.8 3.4 0.2 0.9 0.5 1.8 17.3 9.3 6.5 7.4 4.0 3.9 9.1 8.1 9.4 10.5 17.3 19.2 10.3
0.0 0.0 0.0 0.0 0.0 0.0 0.0 62.0 14.6 4.5 5.0 1.1 8.1 16.6 16.6 8.1 2.7 9.5 4.8 5.9 3.8 6.1 10.9 7.6 8.1 5.6 2.4 5.1 0.1 0.7 1.0 9.2 10.2 8.3 6.0 3.1 7.6 9.4 5.9 5.0 7.3 8.4 5.1 7.4
0.0 0.0 0.0 0.0 0.0 0.0 0.0 3.1 0.0 11.6 5.3 4.1 10.3 9.1 6.1 6.2 6.9 0.6 2.3 5.1 7.9 7.0 4.5 1.2 1.1 1.9 2.2 4.2 5.9 5.3 5.9 8.7 7.2 8.4 2.0 3.0 9.7 9.4 5.5 3.5 1.8 2.8 3.7 6.7
0.0 0.0 0.0 0.0 0.0 0.0 0.0 0.0 1.4 23.6 18.7 9.7 6.5 3.3 4.3 5.6 5.0 8.8 2.8 1.3 5.1 0.0 0.0 0.0 0.0 0.9 0.5 0.4 1.8 2.4 7.6 7.2 9.7 8.1 5.8 15.7 9.4 3.2 1.6 1.0 1.0 1.8 1.3 1.6
0.0 0.0 0.0 0.0 0.0 0.0 0.0 0.0 0.2 19.3 19.0 5.0 6.2 4.7 5.5 1.5 3.1 4.7 3.4 1.2 0.0 0.0 1.8 6.6 7.2 3.9 3.1 1.1 0.4 0.8 2.3 7.5 14.4 12.7 6.0 4.1 2.3 2.0 1.5 1.9 1.8 1.6 1.4 0.8
0.0 0.0 0.0 0.0 0.0 0.0 0.0 0.0 0.0 11.8 26.9 9.2 2.0 8.1 6.0 7.0 5.4 6.4 3.7 0.0 0.0 0.0 6.1 12.6 10.8 5.6 3.2 2.1 1.7 0.0 1.2 4.8 19.5 17.2 12.6 6.2 3.0 0.6 0.1 0.1 2.7 1.2 0.3 0.3
0.0 0.0 0.0 0.0 0.0 0.0 0.0 0.0 0.0 6.3 33.4 1.3 1.6 4.7 6.8 5.5 5.3 7.8 2.3 2.7 1.6 2.3 11.3 12.5 9.6 6.5 4.1 6.2 4.4 3.7 7.8 11.9 22.8 18.9 22.2 8.4 1.8 1.1 0.5 7.0 8.9 1.5 0.2 0.1
0.0 0.0 0.0 0.0 0.0 0.0 0.0 0.0 0.0 0.0 20.8 1.6 0.0 0.3 1.2 3.4 3.0 7.7 6.0 11.0 9.9 14.5 17.4 14.6 10.8 9.5 8.2 4.8 2.6 5.6 7.9 12.8 11.3 15.1 21.9 16.3 2.8 1.9 5.0 6.3 1.2 0.9 0.4 0.2
0.0 0.0 0.0 0.0 0.0 0.0 0.0 4.7 0.0 0.0 3.9 0.3 0.0 0.0 0.0 0.0 0.0 2.8 5.0 9.1 10.0 13.6 19.9 14.5 8.9 7.1 8.5 5.4 10.3 2.5 9.1 5.2 9.0 9.3 16.1 8.7 6.5 5.6 2.4 2.2 2.3 2.2 0.9 0.3
0.0 0.0 0.0 0.0 0.0 0.0 0.0 1.7 0.0 0.0 13.9 0.3 0.0 0.0 0.0 0.0 0.0 0.0 5.5 3.9 2.7 7.1 7.8 10.1 9.1 9.1 5.0 7.2 4.4 3.6 4.7 0.8 7.3 10.1 7.7 3.9 6.7 4.7 2.1 0.9 3.9 2.0 0.8 1.1
0.0 0.0 0.0 0.0 0.0 0.0 0.0 0.0 0.0 0.0 3.1 15.2 4.1 0.0 0.0 0.0 0.0 0.0 0.0 0.0 0.0 0.0 0.0 9.8 8.3 4.8 0.4 3.7 3.8 1.5 4.4 3.4 5.9 11.0 7.1 4.0 2.8 3.4 2.5 2.3 2.1 0.8 0.4 0.8
0.0 0.0 0.0 0.0 0.0 0.0 0.0 0.0 0.0 0.0 1.8 17.0 6.8 0.0 0.0 0.0 0.0 0.0 0.0 0.0 0.3 1.4 6.7 9.1 4.5 1.3 2.5 0.9 3.0 2.9 1.1 2.9 9.9 11.0 10.7 9.1 6.5 5.5 4.6 3.9 2.6 1.0 0.9 2.0
0.0 0.0 0.0 0.0 0.0 0.0 0.0 44.0 0.0 0.0 0.0 12.4 11.0 0.0 0.0 0.0 0.0 0.0 0.0 0.0 0.3 1.0 3.1 5.9 1.6 0.0 0.9 4.5 5.5 4.2 4.5 2.7 2.8 5.6 6.5 9.1 9.2 6.2 3.1 2.5 0.9 0.1 0.1 0.0
0.0 0.0 0.0 0.0 0.0 0.0 4.9 16.9 0.6 0.0 0.0 16.9 14.4 7.4 0.0 0.0 0.0 0.0 0.0 0.0 0.4 2.8 5.9 4.3 2.0 1.4 1.7 6.1 2.9 1.7 0.9 0.5 0.3 0.6 0.5 1.6 1.0 0.9 0.1 0.0 0.0 0.0 0.0 0.0
0.0 0.0 0.0 0.0 0.0 0.0 3.0 0.0 0.0 0.0 2.8 5.7 16.1 11.0 6.0 0.0 5.2 8.8 0.9 5.7 3.3 3.0 3.4 2.4 2.0 1.7 2.8 12.0 1.0 0.0 0.0 0.0 0.0 0.0 0.0 0.0 0.0 0.0 0.0 0.0 0.0 0.0 0.0 0.0
0.0 0.0 0.0 0.0 0.0 17.0 0.0 0.0 0.0 0.0 7.5 16.8 7.8 5.0 15.3 0.0 5.5 5.0 6.3 2.7 11.7 1.7 5.9 2.1 2.1 6.5 12.3 8.0 2.0 0.8 0.4 0.2 0.7 0.0 0.0 0.0 0.1 0.1 0.0 0.7 0.7 0.1 0.8 2.9
0.0 0.0 9.4 48.4 9.1 0.0 0.0 2.2 29.8 20.0 7.3 4.3 4.1 1.7 11.3 3.1 8.2 10.6 9.2 6.9 6.9 8.6 3.9 0.2 5.1 7.2 3.3 2.0 2.6 3.2 1.8 2.1 1.1 1.1 0.7 1.0 0.8 1.0 1.4 1.5 2.1 2.5 2.8 2.9
0.0 34.4 26.7 2.0 0.0 0.0 11.7 32.7 26.4 11.4 12.8 2.0 2.0 0.9 3.4 3.2 15.1 8.0 6.6 11.7 7.4 8.5 4.8 5.0 9.0 9.8 5.6 4.9 5.8 3.4 1.2 0.7 0.8 1.0 1.3 1.1 0.9 1.2 1.7 2.8 1.3 1.8 1.8 2.1
0.0 0.0 0.0 0.0 21.5 19.3 14.6 15.0 9.0 5.8 4.3 1.0 1.5 0.6 0.3 1.4 3.9 14.0 7.6 10.2 13.9 13.1 5.4 11.9 12.3 7.0 4.9 4.9 4.9 1.8 0.5 0.1 0.1 0.2 0.4 0.7 0.8 1.0 1.0 1.6 1.9 2.6 3.2 4.0
0.0 11.6 16.1 14.9 21.5 24.7 14.7 9.7 5.3 6.2 4.0 3.8 1.3 5.1 3.7 2.2 11.1 17.2 12.2 12.1 13.5 5.4 15.6 16.6 13.7 7.8 4.0 3.4 2.9 2.3 1.4 1.2 0.6 1.1 1.2 1.2 1.6 2.1 2.9 3.2 5.1 5.5 6.3 8.3
12.3 24.0 22.0 15.2 13.1 9.9 8.4 5.0 3.9 4.6 5.2 5.0 2.6 5.2 8.4 9.1 16.8 23.4 21.1 15.9 5.7 13.3 13.3 10.8 11.4 7.7 8.4 5.7 4.5 4.1 5.6 6.3 6.0 5.9 6.0 7.0 6.9 7.8 9.1 7.8 8.2 6.6 7.4 9.5
12.8 8.8 11.6 9.2 9.7 8.1 7.3 5.4 5.4 4.8 8.1 7.1 7.9 8.5 11.6 15.0 19.4 14.6 11.0 9.3 9.0 9.4 9.4 16.2 8.4 6.9 6.7 5.7 5.5 5.7 6.3 6.5 7.1 7.8 7.0 9.8 8.5 7.5 10.8 9.4 8.2 6.3 6.0 5.7
5.8 7.5 11.3 7.8 6.6 7.5 8.2 7.1 7.8 5.8 10.4 9.0 10.5 14.4 15.2 16.2 11.0 9.8 7.9 6.6 12.4 12.6 8.8 7.0 7.7 7.2 7.7 8.0 8.0 8.1 8.4 7.5 6.8 6.5 6.1 6.9 6.7 6.4 6.4 7.0 6.5 5.7 4.5 4.4
4.4 10.7 12.5 11.1 9.2 10.6 11.2 8.9 8.4 6.2 8.6 12.2 7.7 12.3 12.6 10.3 11.0 13.0 11.1 14.4 17.9 10.4 9.2 8.0 8.1 8.0 8.7 8.6 8.4 8.8 7.6 6.0 5.5 5.3 4.9 4.6 4.3 3.2 2.1 2.9 4.7 3.9 4.1 3.8